• In Uzbekistan
  • List of Countries
  • For 7 days
  • Water Temperature
  • Weather Map
  • Weather Widgets
  • user-avatar
    Login

    Hourly Weather Ischgl

    Today, 5 April, Sunday

    Time Temperature Precipitation Wind Pressure Humidity
    00:00 -8°C° 0 mm 2 mps 573 mmHg 77%
    01:00 -9°C° 0 mm 2 mps 572 mmHg 74%
    02:00 -9°C° 0 mm 2 mps 572 mmHg 71%
    03:00 -9°C° 0 mm 2 mps 572 mmHg 69%
    04:00 -9°C° 0 mm 2 mps 572 mmHg 67%
    05:00 -9°C° 0 mm 2 mps 572 mmHg 65%
    06:00 -8°C° 0 mm 2 mps 573 mmHg 62%
    07:00 -7°C° 0 mm 2 mps 573 mmHg 60%
    08:00 -5°C° 0 mm 2 mps 574 mmHg 67%
    09:00 -1°C° 0 mm 1 mps 575 mmHg 73%
    10:00 +1°C° 0 mm 1 mps 576 mmHg 79%
    11:00 +2°C° 0 mm 1 mps 576 mmHg 80%
    12:00 +2°C° 0 mm 1 mps 577 mmHg 81%
    13:00 +2°C° 0 mm 2 mps 577 mmHg 82%
    14:00 +2°C° 0 mm 2 mps 576 mmHg 82%
    15:00 +2°C° 0 mm 2 mps 576 mmHg 83%
    16:00 +2°C° 0 mm 2 mps 576 mmHg 83%
    17:00 -1°C° 0 mm 2 mps 575 mmHg 84%
    18:00 -3°C° 0 mm 2 mps 574 mmHg 85%
    19:00 -4°C° 0 mm 2 mps 573 mmHg 86%
    20:00 -5°C° 0 mm 2 mps 574 mmHg 86%
    21:00 -7°C° 0 mm 3 mps 574 mmHg 86%
    22:00 -7°C° 0 mm 3 mps 574 mmHg 85%
    23:00 -7°C° 0 mm 3 mps 574 mmHg 85%

    Tomorrow, 6 April, Monday

    Time Temperature Precipitation Wind Pressure Humidity
    00:00 -8°C° 0 mm 3 mps 574 mmHg 84%
    01:00 -8°C° 0 mm 3 mps 574 mmHg 83%
    02:00 -8°C° 0 mm 3 mps 574 mmHg 82%
    03:00 -9°C° 0 mm 3 mps 574 mmHg 80%
    04:00 -8°C° 0 mm 2 mps 574 mmHg 78%
    05:00 -7°C° 0 mm 2 mps 574 mmHg 75%
    06:00 -7°C° 0 mm 2 mps 574 mmHg 72%
    07:00 -6°C° 0 mm 2 mps 575 mmHg 68%
    08:00 -4°C° 0 mm 2 mps 576 mmHg 67%
    09:00 0°C° 0 mm 1 mps 577 mmHg 66%
    10:00 +2°C° 0 mm 1 mps 578 mmHg 65%
    11:00 +3°C° 0 mm 1 mps 578 mmHg 63%
    12:00 +4°C° 0 mm 1 mps 579 mmHg 60%
    13:00 +5°C° 0 mm 1 mps 579 mmHg 58%
    14:00 +5°C° 0 mm 1 mps 579 mmHg 58%
    15:00 +5°C° 0 mm 1 mps 579 mmHg 58%
    16:00 +5°C° 0 mm 1 mps 579 mmHg 59%
    17:00 +3°C° 0 mm 1 mps 578 mmHg 65%
    18:00 +1°C° 0 mm 1 mps 577 mmHg 71%
    19:00 -1°C° 0 mm 1 mps 576 mmHg 77%
    20:00 -1°C° 0 mm 1 mps 576 mmHg 78%
    21:00 -2°C° 0 mm 1 mps 577 mmHg 79%
    22:00 -2°C° 0 mm 1 mps 577 mmHg 80%
    23:00 -3°C° 0 mm 0 mps 577 mmHg 81%

    Day after tomorrow, 7 April, Tuesday

    Time Temperature Precipitation Wind Pressure Humidity
    00:00 -3°C° 0 mm 0 mps 577 mmHg 81%
    01:00 -4°C° 0 mm 0 mps 577 mmHg 82%
    02:00 -4°C° 0 mm 0 mps 577 mmHg 83%
    03:00 -4°C° 0 mm 0 mps 577 mmHg 84%
    04:00 -3°C° 0 mm 1 mps 577 mmHg 84%
    05:00 -2°C° 0 mm 1 mps 578 mmHg 84%
    06:00 -2°C° 0 mm 1 mps 578 mmHg 85%
    07:00 -1°C° 0 mm 1 mps 578 mmHg 85%
    08:00 0°C° 0 mm 1 mps 579 mmHg 80%
    09:00 +2°C° 0 mm 1 mps 580 mmHg 76%
    10:00 +4°C° 0 mm 1 mps 580 mmHg 71%
    11:00 +5°C° 0 mm 1 mps 581 mmHg 66%
    12:00 +6°C° 0 mm 1 mps 581 mmHg 61%
    13:00 +6°C° 0 mm 1 mps 581 mmHg 56%
    14:00 +7°C° 0 mm 1 mps 581 mmHg 55%
    15:00 +7°C° 0 mm 1 mps 581 mmHg 54%
    16:00 +7°C° 0 mm 1 mps 581 mmHg 53%
    17:00 +5°C° 0 mm 1 mps 580 mmHg 63%
    18:00 +2°C° 0 mm 1 mps 579 mmHg 72%
    19:00 -1°C° 0 mm 0 mps 577 mmHg 82%
    20:00 -1°C° 0 mm 0 mps 578 mmHg 82%
    21:00 0°C° 0 mm 1 mps 578 mmHg 83%
    22:00 -1°C° 0 mm 1 mps 578 mmHg 83%
    23:00 -1°C° 0 mm 1 mps 578 mmHg 83%

    8 April, Wednesday

    Time Temperature Precipitation Wind Pressure Humidity
    00:00 -1°C° 0 mm 1 mps 578 mmHg 84%
    01:00 -1°C° 0 mm 1 mps 578 mmHg 84%
    02:00 -1°C° 0 mm 1 mps 578 mmHg 85%
    03:00 -1°C° 0 mm 1 mps 578 mmHg 85%
    04:00 -2°C° 0 mm 1 mps 577 mmHg 86%
    05:00 -1°C° 0 mm 1 mps 578 mmHg 85%
    06:00 -1°C° 0 mm 0 mps 578 mmHg 83%
    07:00 -1°C° 0 mm 0 mps 578 mmHg 81%
    08:00 +1°C° 0 mm 0 mps 579 mmHg 75%
    09:00 +4°C° 0 mm 1 mps 579 mmHg 69%
    10:00 +6°C° 0 mm 1 mps 580 mmHg 62%
    11:00 +6°C° 0.1 mm 1 mps 580 mmHg 61%
    12:00 +7°C° 0.1 mm 1 mps 580 mmHg 59%
    13:00 +7°C° 0.1 mm 1 mps 580 mmHg 58%
    14:00 +7°C° 0.2 mm 1 mps 580 mmHg 61%
    15:00 +7°C° 0.2 mm 1 mps 579 mmHg 65%
    16:00 +6°C° 0.2 mm 1 mps 579 mmHg 68%
    17:00 +4°C° 0.3 mm 1 mps 578 mmHg 76%
    18:00 +3°C° 0.3 mm 1 mps 577 mmHg 85%
    19:00 +1°C° 0.3 mm 1 mps 576 mmHg 93%
    20:00 -1°C° 0.2 mm 0 mps 576 mmHg 94%
    21:00 -1°C° 0.2 mm 0 mps 576 mmHg 96%
    22:00 -1°C° 0.2 mm 0 mps 576 mmHg 97%
    23:00 -1°C° 0 mm 0 mps 576 mmHg 96%

    9 April, Thursday

    Time Temperature Precipitation Wind Pressure Humidity
    00:00 -1°C° 0 mm 0 mps 576 mmHg 96%
    01:00 -1°C° 0 mm 0 mps 576 mmHg 96%
    02:00 -2°C° 0 mm 0 mps 576 mmHg 96%
    03:00 -2°C° 0 mm 0 mps 576 mmHg 95%
    04:00 -2°C° 0 mm 0 mps 575 mmHg 95%
    05:00 -1°C° 0 mm 0 mps 576 mmHg 94%
    06:00 +1°C° 0 mm 1 mps 576 mmHg 93%
    07:00 +1°C° 0 mm 1 mps 577 mmHg 92%
    08:00 +2°C° 0.1 mm 1 mps 577 mmHg 86%
    09:00 +3°C° 0.1 mm 1 mps 577 mmHg 80%
    10:00 +4°C° 0.1 mm 1 mps 578 mmHg 74%
    11:00 +5°C° 0.1 mm 1 mps 578 mmHg 72%
    12:00 +5°C° 0.1 mm 1 mps 578 mmHg 71%
    13:00 +6°C° 0.1 mm 1 mps 578 mmHg 70%
    14:00 +4°C° 0.2 mm 2 mps 577 mmHg 71%
    15:00 +4°C° 0.2 mm 2 mps 577 mmHg 73%
    16:00 +4°C° 0.2 mm 2 mps 577 mmHg 75%
    17:00 +3°C° 0.2 mm 2 mps 577 mmHg 81%
    18:00 +2°C° 0.2 mm 2 mps 576 mmHg 86%
    19:00 +2°C° 0.2 mm 1 mps 576 mmHg 92%
    20:00 +2°C° 0 mm 1 mps 576 mmHg 94%
    21:00 +1°C° 0 mm 1 mps 576 mmHg 95%
    22:00 +1°C° 0 mm 1 mps 576 mmHg 96%
    23:00 0°C° 0 mm 1 mps 576 mmHg 96%

    10 April, Friday

    Time Temperature Precipitation Wind Pressure Humidity
    00:00 -1°C° 0 mm 0 mps 576 mmHg 96%
    01:00 -1°C° 0 mm 0 mps 576 mmHg 95%
    02:00 -2°C° 0 mm 0 mps 575 mmHg 95%
    03:00 -2°C° 0 mm 0 mps 575 mmHg 95%
    04:00 -3°C° 0 mm 0 mps 575 mmHg 95%
    05:00 -2°C° 0 mm 0 mps 575 mmHg 92%
    06:00 -1°C° 0 mm 0 mps 576 mmHg 90%
    07:00 +1°C° 0 mm 1 mps 577 mmHg 87%
    08:00 +3°C° 0 mm 1 mps 577 mmHg 78%
    09:00 +3°C° 0 mm 0 mps 578 mmHg 69%
    10:00 +5°C° 0 mm 0 mps 579 mmHg 60%
    11:00 +7°C° 0 mm 1 mps 579 mmHg 56%
    12:00 +8°C° 0 mm 1 mps 580 mmHg 51%
    13:00 +9°C° 0 mm 1 mps 580 mmHg 46%
    14:00 +9°C° 0 mm 1 mps 580 mmHg 46%
    15:00 +9°C° 0 mm 1 mps 580 mmHg 47%
    16:00 +9°C° 0 mm 1 mps 579 mmHg 47%
    17:00 +8°C° 0 mm 1 mps 578 mmHg 58%
    18:00 +6°C° 0 mm 1 mps 577 mmHg 70%
    19:00 +4°C° 0 mm 1 mps 576 mmHg 82%
    20:00 +3°C° 0 mm 1 mps 576 mmHg 85%
    21:00 +1°C° 0 mm 0 mps 576 mmHg 89%
    22:00 0°C° 0 mm 0 mps 576 mmHg 93%
    23:00 0°C° 0 mm 0 mps 576 mmHg 93%
    Show more